Погода в Сеяхе

Погода в Сеяхе : погода сейчас, прогноз погоды и архив. Всё, что Вы хотите узнать о погоде в Сеяхе!

Хотите узнать прогноз погоды в Сеяхе? Тогда Вам сюда: Погода в Сеяхе

Поиск расширенной информации на нашем сайте:

Другие новости

Новости СМИ2

Главная страница сайта

Новости сайта

03.07.2017

Напоминаем, что на нашем специализированном сайте Метеоцентр.Азия вы можете получить высокодетализированные автоматические прогнозы погоды по пунктам России, СНГ и мира в авиационном формате (включающие направление и скорость ветра, видимость, явления погоды, количество и форму облачности, нижнюю и верхнюю границу облачности).

Рекомендуем: Оптовым покупателям женские халаты оптом от нашего лучшего отечественного Российского производителя

Погода в Сеяхе - сегодня

Время (UTC), дата Ветер
(°,м/с) 
Видим.   Явления Облачность Т
(°С)
Тd
(°С)
f(%) Тe
(°С)
Pmin
(гПа)
dP
(гПа)
Po
(мм)
O2
(г/м3)
Тmin Tmax R s Состояние
почвы
15 16.08.17 270 (З) 7{13}  20000 м    4/4 600 м 
[Sc]
+8.6 +4.7 76 +6  1012.7  0.7  758  295    +11.6       
00 17.08.17 250 (З) 7-11{11}  20000 м    9/9 420 м 
[Cu Sc]
+6.9 +5.8 93 +4  1011.9  -0.5  757  297           
03 17.08.17 260 (З) 9-13{14}  20000 м    10/10 360 м 
[Sc]
+8 +6.5 90 +5  1011.3  -0.6  757  295  +6.2        влажная 
06 17.08.17 260 (З) 8-13{15}  н/о    н/о 
+8.6 +6 84 +6  1011.6  0.3  757  295           
09 17.08.17 280 (З) 8-12{15}  20000 м    10/10 1050 м 
[Cu Sc]
+9.4 +5.8 78 +7  1012.6  758  294           
12 17.08.17 280 (З) 9-12{14}  20000 м    10/10 960 м 
[Cu Sc]
+9.3 +5 74 +7  1013.5  0.9  758  295           
15 17.08.17 280 (З) 7{12}  20000 м    6/6 840 м 
[Cu Sc]
+8.2 +5.1 81 +6  1014.3  0.8  759  296    +9.7       
18 17.08.17 290 (З) 20000 м    4/4 600 м 
[Cu Sc]
+5.6 +4.2 91 +3  1015.2  0.9  760  299           
21 17.08.17 260 (З) 20000 м    4/4 600 м 
[Sc]
+4.1 +3.3 95 +2  1015.4  0.2  760  301           
00 18.08.17 230 (ЮЗ) 20000 м    8/3 600 м верхняя 
[Sc|Ci fib]
+3.9 +3.2 95 +2  1014.6  -0.7  759  301           
03 18.08.17 250 (З) 20000 м    8/0 средняя, верхняя 
[Ac trans|Ci fib]
+9.9 +5.4 74 +8  1013.4  -1.2  758  294  +3        влажная 
06 18.08.17 210 (ЮЗ) 5{11}  10 км  слаб. ливневой дождь  10/6 1020 м кучево-дожд., средняя 
[Cb cap|Ac und]
+9.4 +7.1 86 +8  1011.7  -1.7  757  294           
09 18.08.17 220 (ЮЗ) 6{12}  20000 м  {ливн. осадки}  10/0 средняя 
[Ac und]
+12.9 +8.8 76 +12  1009.6  -2.1  756  289           
12 18.08.17 230 (ЮЗ) 6-11{13}  20000 м  {ливн. осадки}  8/0 средняя, верхняя 
[Ac trans|Ci fib]
+14.5 +9.9 74 +15  1007.7  -1.9  754  287           
15 18.08.17 240 (ЮЗ) 5{11}  20000 м    10/10 360 м 
[St]
+12.3 +10.5 89 +13  1006.3  -1.4  753  288    +15  0.0     
18 18.08.17 250 (З) 6{11}  20000 м    10/10 270 м 
[St]
+9.9 +8.8 93 +8  1006  -0.3  753  291           
21 18.08.17 250 (З) 6{14}  20000 м    10/10 300 м 
[St]
+9 +7.8 92 +7  1005.2  -0.8  752  292           
00 19.08.17 260 (З) 1000 м  дымка  10/10 120 м 
[St]
+8.9 +8.3 96 +7  1005.1  0.1  752  292           
03 19.08.17 330 (СЗ) 9-12{13}  10 км  слаб. дождь  10/10 240 м 
[Ns]
+5.6 +4.4 92 +2  1007.1  754  297  +5.6    0.0    влажная 
06 19.08.17 330 (СЗ) 8-12{14}  20000 м  {дождь}  6/6 300 м 
[Cu hum]
+6.6 +1.2 68 +4  1009.6  2.5  756  297  +4.9         
09 19.08.17 320 (СЗ) 8-11{13}  20000 м  {ливн. осадки}  8/8 870 м 
[Cu Sc]
+7.4 +2.2 70 +5  1011.1  1.5  757  297           
12 19.08.17 320 (СЗ) 8-11{13}  20000 м  {ливн. осадки}  9/9 1230 м 
[Cu Sc]
+7.5 +2 68 +5  1012.5  1.4  758  297           
15 19.08.17 310 (СЗ) 4{12}  20000 м    8/8 1110 м 
[Cu Sc]
+6.9 +2.5 74 +6  1013.8  1.3  759  298    +8.4  0.0     
18 19.08.17 280 (З) 20000 м    6/6 1080 м 
[Cu Sc]
+3.5 +2.1 91 +2  1014.7  0.8  759  302           
21 19.08.17 270 (З) 20000 м    3/0 верхняя 
[Ci fib]
+1.9 +1.3 96 1015.4  0.6  760  304           
Время (UTC), дата Ветер
(°,м/с) 
Видим.   Явления Облачность Т
(°С)
Тd
(°С)
f(%) Тe
(°С)
Pmin
(гПа)
dP
(гПа)
Po
(мм)
O2
(г/м3)
Тmin Tmax R s Состояние
почвы

Для получения пояснительной информации подведите курсор к названию столбца.

ПОГОДА в Сеяхе - архив

Всё, что Вы хотите узнать о погоде в Сеяхе - удобно и подробно!

Выберите нужную дату (начиная с 1 января 2015* года) и нажмите кнопку "Найти".
Будут отображены архивные сводки погоды по пункту Сеяха, начиная с указанной даты.


Отображать данные в формате CSV (для использования в таблицах Excel)


Внимание! Наш архив погоды предназначен исключительно для личного некоммерческого использования в познавательных целях. Если Вам необходимы официальные справки о состоянии погоды (для производственных, юридических, коммерческих и т.п. целей), обращайтесь в органы Росгидромета.

*Примечание: данная дата относится к архиву по метеостанциям СССР (Россия, СНГ, Балтия).
Архив по метеостанциям Зарубежной Европы и Азии (кроме Китая) хранится 10 дней, по другим регионам земного шара (Китай, Африка, Америка, Австралия, Океания) - 1 день.

Сеяха - район местоположения метеостанции


Название, широта, долгота, высота метеостанции:
Сеяха 70.2°ш. 72.5°д. 16 м над ур. моря [Российская Федерация]

Дополнительная информация

В oтличие oт бoльшинства пoгoдных сайтoв мы публикуем пoдрoбную метеoинфoрмацию в детальнoм прoфессиoнальнoм фoрмате.

Характеристики температуры и влажнoсти вoздуха измеряются на высoте 2 м в тени вдали oт зданий и деревьев.
Скoрoсть ветра измеряется на высoте 10 м (на урoвне рoста челoвека скoрoсть ветра ниже в 1.5-2 раза). Если метеoстанция нахoдится в гoрoде или в лесу, тo скoрoсть ветра занижена на 2-4 м/с пo сравнению с oткрытым местoм. Скoрoсть ветра над акватoриями крупных рек и oзёр, а также на вершинах хoлмoв на 2-5 м/с выше, чем в oбычных услoвиях.
Атмoсфернoе давление в разных тoчках местнoсти мoжет значительнo oтличаться oт давления на метеoстанции, в зависимoсти oт услoвий рельефа (при пoдъёме на 10 м давление пoнижается примернo на 1 мм рт.ст.).